Retour au catalogue

STARLINK-36433

ActifCommunicationsVLEO
NORAD 67501·PAYLOAD·🇺🇸 United States

Lancé Jan 18, 2026 depuis Cape Canaveral Space Force Station

Loading…

Prochains Passages (prochaines 24 heures)

TLE

FraisSource: CelesTrak SupGP

Époque: Sep 15, 2026, 03:01 UTC

1 67501C 26012J   26258.12618056  .00047892  00000+0  17345-2 0  2581
2 67501  43.0020 324.5493 0001613 262.5394 107.2209 15.27557177    11

Suivez STARLINK-36433 en temps réel avec AllMySat

Download on the App Store